Find Starlink 31724

NORAD ID: 59554 Int'l Des: 2024-074 Owner: SPXS Country: US Constellation: starlink operational
LEOCIRCULAR

实时位置

正在加载3D地球...

关于 Starlink 31724

正在加载描述...

即将过境

Passes for default location (London). Set your location on the main map for personalized predictions.

高度历史

Loading altitude history...

两行轨道根数

1 59554U 24074W 26123.93702752 .00001249 00000-0 54867-4 0 9994
2 59554 43.0039 355.4816 0001141 271.2709 88.8012 15.27595463114871
Epoch: May 3, 2026 • Age: 8 hours

当前状态

高度 484.9 km
速度 7.63 km/s
星下点 34.17°N, 79.16°E
发射日期 Apr 18, 2024
运行时间 2 years
类型 internet

技术详情

分类 Payload
质量 730.00 kg
干质量 700.00 kg
总质量 730.00 kg
长度 0.30 m
直径 4.10 m
跨度 29.00 m
形状 Box + pan
制造商 SPXS
平台类型 Starlink V2M
阶段状态 In Orbit
所有者/国家 SPXS/US

Most Searched